星链-4178 (STARLINK-4178 )

导读

STARLINK-4178是美国太空探索技术公司(SpaceX)星链(Starlink)互联网星座组网卫星,于2022年7月24日在美国发射入轨。星链星座旨在为全球提供高速低延迟卫星互联网服务,该卫星属于星链项目批量生产发射的卫星,承担全球网络覆盖补网组网任务,推进星座部署进程。

Basic Information
目录编号:
53277
目录名称:
STARLINK-4178
国际标识:
2022-086AM
轨道中心:
EARTH
卫星名称:
星链-4178
卫星全名:
星链-4178 (STARLINK-4178 )
卫星状态:
在轨 (已飞行1504 天)
发射日期:
2022-07-24 UTC
国别 :
美国 (US)
星等 :
--
Orbit Information
数据来源 国际轨道数据 AOE轨道数据
星历时间 2026-09-04T07:43:56+0800
1天前
查看轨道信息
2026-08-29T22:00:00+0800
6天前
查看轨道信息
半长轴 6848.853km 6848.852km
偏心率 0.0001013 0.0001002
轨道倾角 53.159° 53.161°
近地点辐角 74.727° 102.574°
升交点赤经 93.233° 118.399°
平近点角 285.385° 314.244°
近地点 470.022km 470.028km
远地点 471.41km 471.402km
周期 94.013分钟 94.013分钟
每日圈数 15.317081 15.317085
Detailed Information
固有亮度:
5
最大亮度:
2.5
卫星平台:
Starlink v1.5
覆盖范围:
全球
运营商:
太空探索技术公司
运营商所在国:
美国
制造商(研发单位):
太空探索技术公司
制造商所在国:
美国
使用方式:
暂无
Satellite Introduction
星链(Starlink)计划是由太空探索技术公司(SpaceX)提出的一个巨型低轨卫星互联网星座项目,计划在2019年至2024年间在太空搭建由约1.2万颗卫星组成的“星链”网络,其中1584颗将部署在地球上空550千米处的近地轨道,并从2020年开始工作。该卫星仍在工作。
2D Orbit Map
3D Orbit Map
Orbit Altitude Analysis Chart
Orbit Inclination Analysis Chart
Orbit Comprehensive Analysis Chart
View Comprehensive Chart